Location: Walnut Point State Park
(39.6958°N, 88.0345°W)
Time: 06:08:26
(UTC-05:00)

Cosmos 1833 Rocket - Visible Passes

Search period start: 06 May 2016 00:00
Search period end: 16 May 2016 00:00
Orbit: 832 x 841 km, 71.0° (Epoch: 05 May)

Date Brightness Start Highest point End Pass type
(mag) Time Alt. Az. Time Alt. Az. Time Alt. Az.
08 May 3.5 05:07:24 10° S 05:12:51 53° ESE 05:18:20 10° NNE visible
09 May 3.6 04:50:50 10° S 04:56:12 48° ESE 05:01:37 10° NE visible
10 May 3.7 04:34:15 10° S 04:39:34 44° ESE 04:44:54 10° NE visible
11 May 3.8 04:17:42 10° S 04:22:56 40° ESE 04:28:11 10° NE visible
12 May 3.9 04:01:11 10° S 04:06:18 37° ESE 04:11:26 10° NE visible
13 May 4.0 03:44:51 11° SSE 03:49:40 34° ESE 03:54:42 10° NE visible
14 May 4.1 03:28:59 14° SSE 03:33:03 31° ESE 03:37:57 10° NE visible
15 May 4.2 03:13:04 16° SSE 03:16:25 29° ESE 03:21:11 10° NE visible
15 May 3.4 04:54:55 10° SW 05:00:09 39° WNW 05:05:26 10° N visible
